Storm Lake, IA

9:02 PM CST on February 20, 2017 (GMT -0600)
Storm Lake Municipal

Weather History for KSLB - September, 2011

Change the Weather History Date:

Saturday, September 10, 2011

  Actual Average Record
Temperature  
Mean Temperature 66 °F -  
Max Temperature 81 °F 76 °F 91 °F (2005)
Min Temperature 52 °F 54 °F 46 °F (1997)
Cooling Degree Days 2    
Growing Degree Days 16 (Base 50)    
Moisture  
Dew Point 53 °F    
Average Humidity 64    
Maximum Humidity 93    
Minimum Humidity 34    
Precipitation  
Precipitation 0.00 in - - ()
Sea Level Pressure  
Sea Level Pressure 30.07 in    
Wind  
Wind Speed 4 mph (NE)    
Max Wind Speed 8 mph    
Max Gust Speed -    
Visibility 10 miles    
Events      
Averages and records for this station are not official NWS values.
T = Trace of Precipitation, MM = Missing Value Source: NWS Daily Summary

Daily Weather History Graph

Daily Weather History Graph

Search for Another Location

Airport or City:

Trip Planner

Search our weather history database for the weather conditions in past years. The results will help you decide how hot, cold, wet, or windy it might be!

Date:

Astronomy

Sep. 10, 2011 Rise Set
Actual Time 6:55 AM CDT 7:40 PM CDT
Civil Twilight 6:26 AM CDT 8:08 PM CDT
Nautical Twilight 5:52 AM CDT 8:42 PM CDT
Astronomical Twilight 5:17 AM CDT 9:17 PM CDT
Moon 6:35 PM CDT (9/10) 5:15 AM CDT (9/10)
Length of Visible Light 13h 41m
Length of Day
12h 44m
Waxing Gibbous, 97% of the Moon is Illuminated
Sep 10
Waxing Gibbous
Sep 12
Full
Sep 20
Last Quarter
Sep 27
New
Oct 3
First Quarter

Hourly Weather History & Observations

Time (CDT) Temp. Dew Point Humidity Pressure Visibility Wind Dir Wind Speed Gust Speed Precip Events Conditions
12:15 AM 62.6 °F 56.3 °F 80% 30.05 in 10.0 mi NE 5.8 mph - N/A   Clear
12:35 AM 61.9 °F 56.3 °F 82% 30.05 in 10.0 mi NE 5.8 mph - N/A   Clear
12:55 AM 61.5 °F 55.9 °F 82% 30.06 in 10.0 mi NE 3.5 mph - N/A   Clear
1:15 AM 61.5 °F 55.8 °F 81% 30.06 in 10.0 mi ENE 3.5 mph - N/A   Clear
1:35 AM 61.5 °F 55.0 °F 79% 30.06 in 10.0 mi ENE 3.5 mph - N/A   Clear
1:55 AM 59.5 °F 54.1 °F 82% 30.06 in 10.0 mi Calm Calm - N/A   Clear
2:15 AM 59.2 °F 54.0 °F 83% 30.05 in 10.0 mi NE 3.5 mph - N/A   Clear
2:35 AM 58.1 °F 53.2 °F 84% 30.05 in 10.0 mi NE 4.6 mph - N/A   Clear
2:55 AM 57.2 °F 52.9 °F 85% 30.05 in 10.0 mi Calm Calm - N/A   Clear
3:15 AM 56.8 °F 53.1 °F 87% 30.06 in 10.0 mi Calm Calm - N/A   Clear
3:35 AM 56.7 °F 53.4 °F 89% 30.05 in 10.0 mi Calm Calm - N/A   Clear
4:15 AM 54.9 °F 52.0 °F 90% 30.05 in 10.0 mi North 3.5 mph - N/A   Clear
4:35 AM 54.3 °F 51.6 °F 91% 30.06 in 10.0 mi Calm Calm - N/A   Clear
4:55 AM 53.8 °F 51.4 °F 92% 30.06 in 10.0 mi Calm Calm - N/A   Clear
5:15 AM 54.3 °F 52.0 °F 92% 30.06 in 10.0 mi Calm Calm - N/A   Clear
5:35 AM 54.0 °F 51.6 °F 92% 30.06 in 5.0 mi Calm Calm - N/A   Clear
5:55 AM 53.6 °F 51.3 °F 92% 30.07 in 7.0 mi North 5.8 mph - N/A   Clear
6:15 AM 53.2 °F 51.1 °F 92% 30.07 in 5.0 mi North 4.6 mph - N/A   Clear
6:35 AM 52.9 °F 50.9 °F 93% 30.08 in 7.0 mi North 3.5 mph - N/A   Clear
7:15 AM 53.2 °F 51.1 °F 92% 30.09 in 7.0 mi North 3.5 mph - N/A   Clear
7:35 AM 54.3 °F 52.2 °F 92% 30.09 in 5.0 mi North 3.5 mph - N/A   Clear
7:55 AM 55.8 °F 53.6 °F 92% 30.10 in 10.0 mi Calm Calm - N/A   Clear
8:15 AM 58.1 °F 55.8 °F 92% 30.10 in 10.0 mi Calm Calm - N/A   Clear
8:35 AM 61.2 °F 57.7 °F 88% 30.10 in 10.0 mi Calm Calm - N/A   Clear
8:55 AM 63.5 °F 58.1 °F 83% 30.11 in 10.0 mi Calm Calm - N/A   Clear
9:15 AM 65.1 °F 57.9 °F 77% 30.11 in 10.0 mi Calm Calm - N/A   Clear
9:35 AM 67.1 °F 57.6 °F 71% 30.11 in 10.0 mi Calm Calm - N/A   Clear
9:55 AM 69.1 °F 55.9 °F 63% 30.11 in 10.0 mi NE 3.5 mph - N/A   Clear
10:15 AM 70.5 °F 53.6 °F 55% 30.11 in 10.0 mi NE 4.6 mph - N/A   Clear
10:35 AM 71.4 °F 52.2 °F 51% 30.12 in 10.0 mi NNE 4.6 mph - N/A   Clear
10:55 AM 72.3 °F 53.1 °F 51% 30.12 in 10.0 mi NE 3.5 mph - N/A   Clear
11:35 AM 73.9 °F 52.3 °F 47% 30.11 in 10.0 mi NE 3.5 mph - N/A   Clear
11:55 AM 75.0 °F 51.8 °F 44% 30.11 in 10.0 mi East 4.6 mph - N/A   Clear
12:15 PM 75.7 °F 51.3 °F 42% 30.11 in 10.0 mi East 5.8 mph - N/A   Clear
12:35 PM 76.5 °F 52.9 °F 44% 30.11 in 10.0 mi NNE 4.6 mph - N/A   Clear
12:55 PM 77.2 °F 53.2 °F 43% 30.10 in 10.0 mi NNE 3.5 mph - N/A   Clear
1:15 PM 77.5 °F 52.5 °F 42% 30.10 in 10.0 mi Calm Calm - N/A   Clear
1:35 PM 78.1 °F 51.8 °F 40% 30.09 in 10.0 mi NE 4.6 mph - N/A   Clear
1:55 PM 78.8 °F 51.4 °F 38% 30.09 in 10.0 mi NE 4.6 mph - N/A   Clear
2:15 PM 79.3 °F 52.0 °F 38% 30.08 in 10.0 mi NNE 6.9 mph - N/A   Clear
2:35 PM 79.9 °F 50.7 °F 36% 30.08 in 10.0 mi NNE 6.9 mph - N/A   Clear
2:55 PM 80.6 °F 51.3 °F 36% 30.07 in 10.0 mi NE 6.9 mph - N/A   Clear
3:15 PM 81.0 °F 50.5 °F 35% 30.06 in 10.0 mi East 5.8 mph - N/A   Clear
3:35 PM 81.1 °F 51.1 °F 35% 30.06 in 10.0 mi ENE 5.8 mph - N/A   Clear
3:55 PM 81.3 °F 50.5 °F 34% 30.06 in 10.0 mi ENE 3.5 mph - N/A   Clear
4:15 PM 81.5 °F 50.9 °F 34% 30.06 in 10.0 mi ENE 5.8 mph - N/A   Clear
4:35 PM 81.5 °F 51.6 °F 35% 30.05 in 10.0 mi NE 6.9 mph - N/A   Clear
4:55 PM 81.3 °F 50.7 °F 34% 30.05 in 10.0 mi NE 8.1 mph - N/A   Clear
5:15 PM 81.0 °F 50.7 °F 35% 30.06 in 10.0 mi ENE 6.9 mph - N/A   Clear
5:35 PM 80.8 °F 50.7 °F 35% 30.06 in 10.0 mi NNE 6.9 mph - N/A   Clear
5:55 PM 80.2 °F 51.1 °F 36% 30.06 in 10.0 mi NE 5.8 mph - N/A   Clear
6:15 PM 79.3 °F 52.5 °F 39% 30.06 in 10.0 mi ENE 4.6 mph - N/A   Clear
6:35 PM 78.1 °F 53.1 °F 42% 30.06 in 10.0 mi ENE 4.6 mph - N/A   Clear
6:55 PM 76.3 °F 56.3 °F 50% 30.05 in 10.0 mi East 3.5 mph - N/A   Clear
7:15 PM 75.0 °F 56.8 °F 53% 30.05 in 10.0 mi East 4.6 mph - N/A   Clear
7:35 PM 72.0 °F 57.2 °F 60% 30.05 in 10.0 mi East 4.6 mph - N/A   Clear
7:55 PM 69.3 °F 56.7 °F 64% 30.05 in 10.0 mi SE 4.6 mph - N/A   Clear
8:15 PM 68.9 °F 55.2 °F 62% 30.05 in 10.0 mi SE 3.5 mph - N/A   Clear
8:35 PM 66.7 °F 55.0 °F 66% 30.06 in 10.0 mi SE 3.5 mph - N/A   Clear
8:55 PM 65.7 °F 54.1 °F 66% 30.06 in 10.0 mi SE 4.6 mph - N/A   Clear
9:35 PM 63.7 °F 53.8 °F 70% 30.06 in 10.0 mi South 3.5 mph - N/A   Clear
9:55 PM 63.0 °F 53.8 °F 72% 30.06 in 10.0 mi South 3.5 mph - N/A   Clear
10:15 PM 61.7 °F 53.2 °F 74% 30.07 in 10.0 mi South 4.6 mph - N/A   Clear
10:35 PM 62.8 °F 52.5 °F 69% 30.07 in 10.0 mi SSW 4.6 mph - N/A   Clear
10:55 PM 61.5 °F 52.7 °F 73% 30.07 in 10.0 mi SW 4.6 mph - N/A   Clear
11:15 PM 63.1 °F 52.5 °F 68% 30.07 in 10.0 mi WSW 5.8 mph - N/A   Clear
11:35 PM 61.9 °F 51.3 °F 68% 30.07 in 10.0 mi WSW 5.8 mph - N/A   Clear
11:55 PM 61.5 °F 50.4 °F 67% 30.07 in 10.0 mi WSW 5.8 mph - N/A   Clear